Terminal Aerodrome Forecast
Issued by NWS Charleston, WV

Current Version | Previous Version | Graphics & Text | Print | Product List | Glossary On
Versions: 1 2 3 4 5 6 7 8 9 10 11 12 13 14 15 16 17 18 19 20 21 22 23 24 25 26 27 28 29 30 31 32 33
000
FTUS41 KRLX 201100
TAFBKW
TAF
KBKW 201130Z 2012/2112 00000KT P6SM FEW120
     FM201500 25006KT P6SM BKN200
     FM201900 24010G19KT P6SM BKN120
     FM202300 23006KT P6SM BKN080
     FM210500 24005KT P6SM BKN030=

USA.gov is the U.S. government's official web portal to all federal, state and local government web resources and services.